Time,TemperatureF,DewpointF,PressureIn,WindDirection,WindDirectionDegrees,WindSpeedMPH,WindSpeedGustMPH,Humidity,HourlyPrecipIn,Conditions,Clouds,dailyrainin,SoftwareType,DateUTC
2013-04-01 00:00:00,45.5,44.4,29.68,SSE,155,0.0,1.0,96,0.00,,,0.00,WeatherCatV1.02B3,2013-04-01 04:00:00,
2013-04-01 00:01:00,45.5,44.4,29.68,SSE,155,2.0,6.0,96,0.00,,,0.00,WeatherCatV1.02B3,2013-04-01 04:01:00,
2013-04-01 00:06:00,45.5,44.4,29.68,SSE,155,1.0,2.0,96,0.00,,,0.00,WeatherCatV1.02B3,2013-04-01 04:06:00,
2013-04-01 00:11:00,45.4,44.3,29.68,SSE,155,0.0,2.0,96,0.00,,,0.01,WeatherCatV1.02B3,2013-04-01 04:11:00,
2013-04-01 00:16:00,45.3,44.2,29.67,SSE,155,0.0,2.0,96,0.00,,,0.01,WeatherCatV1.02B3,2013-04-01 04:16:00,
2013-04-01 00:21:00,45.2,44.1,29.67,SSE,155,1.0,2.0,96,0.00,,,0.01,WeatherCatV1.02B3,2013-04-01 04:21:00,
2013-04-01 00:26:00,45.1,44.3,29.66,SSE,155,0.0,3.0,97,0.00,,,0.01,WeatherCatV1.02B3,2013-04-01 04:26:00,
2013-04-01 00:31:00,45.1,44.3,29.66,SSE,155,1.0,3.0,97,0.00,,,0.01,WeatherCatV1.02B3,2013-04-01 04:31:00,
2013-04-01 00:36:00,45.1,44.3,29.66,SSE,155,2.0,2.0,97,0.00,,,0.01,WeatherCatV1.02B3,2013-04-01 04:36:00,
2013-04-01 00:41:00,45.0,44.2,29.66,SSE,155,1.0,2.0,97,0.00,,,0.01,WeatherCatV1.02B3,2013-04-01 04:41:00,
2013-04-01 00:46:00,45.0,44.2,29.65,SSE,155,0.0,0.0,97,0.00,,,0.01,WeatherCatV1.02B3,2013-04-01 04:46:00,
2013-04-01 00:51:00,45.0,44.2,29.65,SSE,155,0.0,0.0,97,0.00,,,0.01,WeatherCatV1.02B3,2013-04-01 04:51:00,
2013-04-01 00:56:00,45.0,44.2,29.65,SSE,155,0.0,0.0,97,0.00,,,0.01,WeatherCatV1.02B3,2013-04-01 04:56:00,
2013-04-01 01:01:00,45.0,44.2,29.64,SSE,155,0.0,0.0,97,0.00,,,0.01,WeatherCatV1.02B3,2013-04-01 05:01:00,
2013-04-01 01:06:00,45.0,44.2,29.65,SSE,155,0.0,0.0,97,0.00,,,0.01,WeatherCatV1.02B3,2013-04-01 05:06:00,
2013-04-01 01:11:00,45.1,44.3,29.65,SSE,155,0.0,0.0,97,0.00,,,0.01,WeatherCatV1.02B3,2013-04-01 05:11:00,
2013-04-01 01:16:00,45.1,44.3,29.65,SSE,155,0.0,0.0,97,0.00,,,0.01,WeatherCatV1.02B3,2013-04-01 05:16:00,
2013-04-01 01:21:00,45.2,44.4,29.65,SSE,155,0.0,1.0,97,0.00,,,0.01,WeatherCatV1.02B3,2013-04-01 05:21:00,
2013-04-01 01:26:00,45.2,44.4,29.64,SSE,155,0.0,4.0,97,0.00,,,0.01,WeatherCatV1.02B3,2013-04-01 05:26:00,
2013-04-01 01:31:00,45.5,45.0,29.64,SSE,155,0.0,0.0,98,0.00,,,0.01,WeatherCatV1.02B3,2013-04-01 05:31:00,
2013-04-01 01:36:00,45.6,45.1,29.64,SSE,155,0.0,0.0,98,0.00,,,0.01,WeatherCatV1.02B3,2013-04-01 05:36:00,
2013-04-01 01:41:00,45.7,45.2,29.64,SSE,155,0.0,0.0,98,0.00,,,0.01,WeatherCatV1.02B3,2013-04-01 05:41:00,
2013-04-01 01:46:00,45.7,44.9,29.64,SSE,155,0.0,0.0,97,0.00,,,0.01,WeatherCatV1.02B3,2013-04-01 05:46:00,
2013-04-01 01:51:00,45.7,44.9,29.64,SSE,155,0.0,1.0,97,0.00,,,0.01,WeatherCatV1.02B3,2013-04-01 05:51:00,
2013-04-01 01:56:00,45.7,44.9,29.65,SSE,155,0.0,1.0,97,0.00,,,0.02,WeatherCatV1.02B3,2013-04-01 05:56:00,
2013-04-01 02:01:00,45.6,44.8,29.65,SSE,155,0.0,0.0,97,0.00,,,0.02,WeatherCatV1.02B3,2013-04-01 06:01:00,
2013-04-01 02:06:00,45.5,44.7,29.65,SSE,155,1.0,1.0,97,0.00,,,0.02,WeatherCatV1.02B3,2013-04-01 06:06:00,
2013-04-01 02:11:00,45.5,44.7,29.65,SSE,155,0.0,1.0,97,0.00,,,0.02,WeatherCatV1.02B3,2013-04-01 06:11:00,
2013-04-01 02:16:00,45.5,44.7,29.65,SSE,155,1.0,1.0,97,0.00,,,0.02,WeatherCatV1.02B3,2013-04-01 06:16:00,
2013-04-01 02:21:00,45.5,45.0,29.65,SSE,155,0.0,1.0,98,0.00,,,0.02,WeatherCatV1.02B3,2013-04-01 06:21:00,
2013-04-01 02:26:00,45.5,45.0,29.66,SSE,155,1.0,2.0,98,0.00,,,0.02,WeatherCatV1.02B3,2013-04-01 06:26:00,
2013-04-01 02:31:00,45.4,44.6,29.66,SSE,155,2.0,4.0,97,0.00,,,0.02,WeatherCatV1.02B3,2013-04-01 06:31:00,
2013-04-01 02:36:00,45.2,44.4,29.65,SSE,155,0.0,2.0,97,0.00,,,0.02,WeatherCatV1.02B3,2013-04-01 06:36:00,
2013-04-01 02:41:00,45.1,44.3,29.65,SSE,155,0.0,1.0,97,0.00,,,0.02,WeatherCatV1.02B3,2013-04-01 06:41:00,
2013-04-01 02:46:00,44.9,44.1,29.65,SSE,155,0.0,1.0,97,0.00,,,0.02,WeatherCatV1.02B3,2013-04-01 06:46:00,
2013-04-01 02:51:00,44.8,44.0,29.65,SSE,155,1.0,1.0,97,0.00,,,0.02,WeatherCatV1.02B3,2013-04-01 06:51:00,
2013-04-01 02:56:00,44.7,43.9,29.65,SSE,155,2.0,3.0,97,0.00,,,0.02,WeatherCatV1.02B3,2013-04-01 06:56:00,
2013-04-01 03:01:00,44.6,43.8,29.66,SSE,155,0.0,0.0,97,0.00,,,0.02,WeatherCatV1.02B3,2013-04-01 07:01:00,
2013-04-01 03:06:00,44.5,43.7,29.66,SSE,155,0.0,1.0,97,0.00,,,0.02,WeatherCatV1.02B3,2013-04-01 07:06:00,
2013-04-01 03:11:00,44.4,43.6,29.67,SSE,155,2.0,2.0,97,0.00,,,0.02,WeatherCatV1.02B3,2013-04-01 07:11:00,
2013-04-01 03:16:00,44.3,43.5,29.67,SSE,155,0.0,1.0,97,0.00,,,0.02,WeatherCatV1.02B3,2013-04-01 07:16:00,
2013-04-01 03:21:00,44.2,43.4,29.67,SSE,155,0.0,0.0,97,0.00,,,0.02,WeatherCatV1.02B3,2013-04-01 07:21:00,
2013-04-01 03:26:00,44.1,43.3,29.67,SSE,155,0.0,2.0,97,0.00,,,0.02,WeatherCatV1.02B3,2013-04-01 07:26:00,
2013-04-01 03:31:00,44.1,43.3,29.68,SSE,155,1.0,2.0,97,0.00,,,0.02,WeatherCatV1.02B3,2013-04-01 07:31:00,
2013-04-01 03:36:00,44.0,43.2,29.69,SSE,155,1.0,2.0,97,0.00,,,0.02,WeatherCatV1.02B3,2013-04-01 07:36:00,
2013-04-01 03:41:00,44.0,43.2,29.69,SSE,155,1.0,3.0,97,0.00,,,0.02,WeatherCatV1.02B3,2013-04-01 07:41:00,
2013-04-01 03:46:00,44.0,43.2,29.69,SSE,155,1.0,2.0,97,0.00,,,0.02,WeatherCatV1.02B3,2013-04-01 07:46:00,
2013-04-01 03:51:00,44.0,43.2,29.68,SSE,155,0.0,3.0,97,0.00,,,0.02,WeatherCatV1.02B3,2013-04-01 07:51:00,
2013-04-01 03:56:00,43.9,43.1,29.68,SSE,155,1.0,2.0,97,0.00,,,0.02,WeatherCatV1.02B3,2013-04-01 07:56:00,
2013-04-01 04:01:00,43.9,43.1,29.68,SSE,155,0.0,1.0,97,0.00,,,0.02,WeatherCatV1.02B3,2013-04-01 08:01:00,
2013-04-01 04:06:00,43.9,43.1,29.69,SSE,155,4.0,6.0,97,0.00,,,0.02,WeatherCatV1.02B3,2013-04-01 08:06:00,
2013-04-01 04:11:00,43.9,43.1,29.68,SSE,155,1.0,1.0,97,0.00,,,0.02,WeatherCatV1.02B3,2013-04-01 08:11:00,
2013-04-01 04:16:00,43.9,42.8,29.68,SSE,155,0.0,3.0,96,0.00,,,0.02,WeatherCatV1.02B3,2013-04-01 08:16:00,
2013-04-01 04:21:00,43.9,42.8,29.68,SSE,155,0.0,1.0,96,0.00,,,0.02,WeatherCatV1.02B3,2013-04-01 08:21:00,
2013-04-01 04:26:00,43.8,42.7,29.69,SSE,155,0.0,1.0,96,0.00,,,0.02,WeatherCatV1.02B3,2013-04-01 08:26:00,
2013-04-01 04:31:00,43.8,42.7,29.69,SSE,155,0.0,3.0,96,0.00,,,0.02,WeatherCatV1.02B3,2013-04-01 08:31:00,
2013-04-01 04:36:00,43.8,42.7,29.69,SSE,155,3.0,5.0,96,0.00,,,0.02,WeatherCatV1.02B3,2013-04-01 08:36:00,
2013-04-01 04:41:00,43.8,42.7,29.69,SSE,155,1.0,3.0,96,0.00,,,0.02,WeatherCatV1.02B3,2013-04-01 08:41:00,
2013-04-01 04:46:00,43.7,42.6,29.69,SSE,155,1.0,2.0,96,0.00,,,0.02,WeatherCatV1.02B3,2013-04-01 08:46:00,
2013-04-01 04:51:00,43.7,42.6,29.69,SSE,155,1.0,3.0,96,0.00,,,0.02,WeatherCatV1.02B3,2013-04-01 08:51:00,
2013-04-01 04:56:00,43.7,42.4,29.69,SSE,155,0.0,2.0,95,0.00,,,0.02,WeatherCatV1.02B3,2013-04-01 08:56:00,
2013-04-01 05:01:00,43.7,42.4,29.70,SSE,155,0.0,3.0,95,0.00,,,0.02,WeatherCatV1.02B3,2013-04-01 09:01:00,
2013-04-01 05:07:00,43.7,42.4,29.69,SSE,155,0.0,1.0,95,0.00,,,0.02,WeatherCatV1.02B3,2013-04-01 09:07:00,
2013-04-01 05:12:00,43.7,42.4,29.69,SSE,155,1.0,1.0,95,0.00,,,0.02,WeatherCatV1.02B3,2013-04-01 09:12:00,
2013-04-01 05:17:00,43.6,42.3,29.69,SSE,155,0.0,1.0,95,0.00,,,0.02,WeatherCatV1.02B3,2013-04-01 09:17:00,
2013-04-01 05:22:00,43.6,42.5,29.69,SSE,155,0.0,2.0,96,0.00,,,0.02,WeatherCatV1.02B3,2013-04-01 09:22:00,
2013-04-01 05:27:00,43.5,42.4,29.70,SSE,155,0.0,0.0,96,0.00,,,0.02,WeatherCatV1.02B3,2013-04-01 09:27:00,
2013-04-01 05:32:00,43.4,42.3,29.70,SSE,155,0.0,2.0,96,0.00,,,0.02,WeatherCatV1.02B3,2013-04-01 09:32:00,
2013-04-01 05:37:00,43.3,42.2,29.70,SSE,155,0.0,1.0,96,0.00,,,0.02,WeatherCatV1.02B3,2013-04-01 09:37:00,
2013-04-01 05:42:00,43.2,42.1,29.70,SSE,155,0.0,1.0,96,0.00,,,0.02,WeatherCatV1.02B3,2013-04-01 09:42:00,
2013-04-01 05:47:00,43.1,42.0,29.70,SSE,155,0.0,0.0,96,0.00,,,0.02,WeatherCatV1.02B3,2013-04-01 09:47:00,
2013-04-01 05:52:00,42.9,41.8,29.70,SSE,155,0.0,1.0,96,0.00,,,0.02,WeatherCatV1.02B3,2013-04-01 09:52:00,
2013-04-01 05:57:00,42.7,41.6,29.70,SSE,155,0.0,2.0,96,0.00,,,0.02,WeatherCatV1.02B3,2013-04-01 09:57:00,
2013-04-01 06:02:00,42.6,41.5,29.70,SSE,155,0.0,2.0,96,0.00,,,0.02,WeatherCatV1.02B3,2013-04-01 10:02:00,
2013-04-01 06:07:00,42.5,41.4,29.70,SSE,155,0.0,0.0,96,0.00,,,0.02,WeatherCatV1.02B3,2013-04-01 10:07:00,
2013-04-01 06:12:00,42.5,41.4,29.70,SSE,155,0.0,2.0,96,0.00,,,0.02,WeatherCatV1.02B3,2013-04-01 10:12:00,
2013-04-01 06:17:00,42.4,41.3,29.70,SSE,155,0.0,1.0,96,0.00,,,0.02,WeatherCatV1.02B3,2013-04-01 10:17:00,
2013-04-01 06:22:00,42.3,41.2,29.70,SSE,155,0.0,0.0,96,0.00,,,0.02,WeatherCatV1.02B3,2013-04-01 10:22:00,
2013-04-01 06:27:00,42.2,41.1,29.70,SSE,155,0.0,1.0,96,0.00,,,0.02,WeatherCatV1.02B3,2013-04-01 10:27:00,
2013-04-01 06:32:00,42.2,41.1,29.70,SSE,155,1.0,1.0,96,0.00,,,0.02,WeatherCatV1.02B3,2013-04-01 10:32:00,
2013-04-01 06:37:00,42.1,41.0,29.70,SSE,155,0.0,1.0,96,0.00,,,0.02,WeatherCatV1.02B3,2013-04-01 10:37:00,
2013-04-01 06:42:00,42.0,40.9,29.71,SSE,155,0.0,0.0,96,0.00,,,0.02,WeatherCatV1.02B3,2013-04-01 10:42:00,
2013-04-01 06:47:00,41.9,40.8,29.71,SSE,155,0.0,1.0,96,0.00,,,0.02,WeatherCatV1.02B3,2013-04-01 10:47:00,
2013-04-01 06:52:00,41.8,40.7,29.72,SSE,155,0.0,1.0,96,0.00,,,0.02,WeatherCatV1.02B3,2013-04-01 10:52:00,
2013-04-01 06:57:00,41.7,40.9,29.72,SSE,155,0.0,0.0,97,0.00,,,0.02,WeatherCatV1.02B3,2013-04-01 10:57:00,
2013-04-01 07:02:00,41.7,40.9,29.72,SSE,155,0.0,1.0,97,0.00,,,0.02,WeatherCatV1.02B3,2013-04-01 11:02:00,
2013-04-01 07:07:00,41.7,40.9,29.72,SSE,155,0.0,0.0,97,0.00,,,0.02,WeatherCatV1.02B3,2013-04-01 11:07:00,
2013-04-01 07:12:00,41.8,41.0,29.72,SSE,155,0.0,0.0,97,0.00,,,0.02,WeatherCatV1.02B3,2013-04-01 11:12:00,
2013-04-01 07:17:00,41.9,41.1,29.72,SSE,155,0.0,0.0,97,0.00,,,0.02,WeatherCatV1.02B3,2013-04-01 11:17:00,
2013-04-01 07:22:00,42.0,41.2,29.72,SSE,155,0.0,0.0,97,0.00,,,0.02,WeatherCatV1.02B3,2013-04-01 11:22:00,
2013-04-01 07:27:00,42.2,41.4,29.71,SSE,155,0.0,0.0,97,0.00,,,0.02,WeatherCatV1.02B3,2013-04-01 11:27:00,
2013-04-01 07:32:00,42.5,41.7,29.71,SSE,155,0.0,1.0,97,0.00,,,0.02,WeatherCatV1.02B3,2013-04-01 11:32:00,
2013-04-01 07:37:00,43.2,42.4,29.71,SSE,155,0.0,0.0,97,0.00,,,0.02,WeatherCatV1.02B3,2013-04-01 11:37:00,
2013-04-01 07:42:00,43.9,42.8,29.71,SSE,155,0.0,2.0,96,0.00,,,0.02,WeatherCatV1.02B3,2013-04-01 11:42:00,
2013-04-01 07:47:00,44.5,43.4,29.71,SSE,155,0.0,0.0,96,0.00,,,0.02,WeatherCatV1.02B3,2013-04-01 11:47:00,
2013-04-01 07:52:00,45.0,43.4,29.71,SSE,155,0.0,0.0,94,0.00,,,0.02,WeatherCatV1.02B3,2013-04-01 11:52:00,
2013-04-01 07:57:00,45.3,43.7,29.70,SSE,155,0.0,1.0,94,0.00,,,0.02,WeatherCatV1.02B3,2013-04-01 11:57:00,
2013-04-01 08:02:00,45.5,43.6,29.70,SSE,155,2.0,3.0,93,0.00,,,0.02,WeatherCatV1.02B3,2013-04-01 12:02:00,
2013-04-01 08:07:00,46.0,43.8,29.70,SSE,155,2.0,2.0,92,0.00,,,0.02,WeatherCatV1.02B3,2013-04-01 12:07:00,
2013-04-01 08:12:00,46.5,44.0,29.71,SSE,155,3.0,5.0,91,0.00,,,0.02,WeatherCatV1.02B3,2013-04-01 12:12:00,
2013-04-01 08:17:00,46.9,44.1,29.71,SSE,155,0.0,5.0,90,0.00,,,0.02,WeatherCatV1.02B3,2013-04-01 12:17:00,
2013-04-01 08:22:00,47.4,44.6,29.70,SSE,155,1.0,2.0,90,0.00,,,0.02,WeatherCatV1.02B3,2013-04-01 12:22:00,
2013-04-01 08:27:00,47.9,44.5,29.70,SSE,155,1.0,2.0,88,0.00,,,0.02,WeatherCatV1.02B3,2013-04-01 12:27:00,
2013-04-01 08:32:00,48.2,44.8,29.71,SSE,155,0.0,4.0,88,0.00,,,0.02,WeatherCatV1.02B3,2013-04-01 12:32:00,
2013-04-01 08:37:00,48.6,44.9,29.70,SSE,155,0.0,2.0,87,0.00,,,0.02,WeatherCatV1.02B3,2013-04-01 12:37:00,
2013-04-01 08:42:00,49.1,45.4,29.70,SSE,155,1.0,4.0,87,0.00,,,0.02,WeatherCatV1.02B3,2013-04-01 12:42:00,
2013-04-01 08:47:00,48.8,44.8,29.71,SSE,155,2.0,4.0,86,0.00,,,0.02,WeatherCatV1.02B3,2013-04-01 12:47:00,
2013-04-01 08:52:00,48.8,44.8,29.71,SSE,155,3.0,5.0,86,0.00,,,0.02,WeatherCatV1.02B3,2013-04-01 12:52:00,
2013-04-01 08:57:00,48.4,45.0,29.71,SSE,155,2.0,4.0,88,0.00,,,0.02,WeatherCatV1.02B3,2013-04-01 12:57:00,
2013-04-01 09:02:00,48.1,44.7,29.71,SSE,155,3.0,5.0,88,0.00,,,0.02,WeatherCatV1.02B3,2013-04-01 13:02:00,
2013-04-01 09:07:00,48.1,44.4,29.72,SSE,155,1.0,7.0,87,0.00,,,0.02,WeatherCatV1.02B3,2013-04-01 13:07:00,
2013-04-01 09:12:00,48.6,44.9,29.71,SSE,155,4.0,4.0,87,0.00,,,0.02,WeatherCatV1.02B3,2013-04-01 13:12:00,
2013-04-01 09:17:00,48.7,45.0,29.71,SSE,155,3.0,6.0,87,0.00,,,0.02,WeatherCatV1.02B3,2013-04-01 13:17:00,
2013-04-01 09:22:00,48.9,44.9,29.71,SSE,155,3.0,5.0,86,0.00,,,0.02,WeatherCatV1.02B3,2013-04-01 13:22:00,
2013-04-01 09:27:00,49.3,45.6,29.71,SSE,155,3.0,3.0,87,0.00,,,0.02,WeatherCatV1.02B3,2013-04-01 13:27:00,
2013-04-01 09:32:00,49.7,45.1,29.71,SSE,155,3.0,8.0,84,0.00,,,0.02,WeatherCatV1.02B3,2013-04-01 13:32:00,
2013-04-01 09:37:00,49.7,45.1,29.71,SSE,155,2.0,8.0,84,0.00,,,0.02,WeatherCatV1.02B3,2013-04-01 13:37:00,
2013-04-01 09:42:00,49.9,45.6,29.71,SSE,155,3.0,4.0,85,0.00,,,0.02,WeatherCatV1.02B3,2013-04-01 13:42:00,
2013-04-01 09:47:00,50.4,45.4,29.71,SSE,155,4.0,7.0,83,0.00,,,0.02,WeatherCatV1.02B3,2013-04-01 13:47:00,
2013-04-01 09:52:00,50.5,45.8,29.71,SSE,155,3.0,5.0,84,0.00,,,0.02,WeatherCatV1.02B3,2013-04-01 13:52:00,
2013-04-01 09:57:00,50.9,45.6,29.70,SSE,155,0.0,2.0,82,0.00,,,0.02,WeatherCatV1.02B3,2013-04-01 13:57:00,
2013-04-01 10:02:00,51.4,46.7,29.70,SSE,155,0.0,1.0,84,0.00,,,0.02,WeatherCatV1.02B3,2013-04-01 14:02:00,
2013-04-01 10:07:00,52.1,46.1,29.70,SSE,155,1.0,5.0,80,0.00,,,0.02,WeatherCatV1.02B3,2013-04-01 14:07:00,
2013-04-01 10:12:00,52.4,46.4,29.70,SSE,155,1.0,4.0,80,0.00,,,0.02,WeatherCatV1.02B3,2013-04-01 14:12:00,
2013-04-01 10:17:00,53.0,46.3,29.70,SSE,155,0.0,4.0,78,0.00,,,0.02,WeatherCatV1.02B3,2013-04-01 14:17:00,
2013-04-01 10:22:00,53.3,45.9,29.69,SSE,155,7.0,9.0,76,0.00,,,0.02,WeatherCatV1.02B3,2013-04-01 14:22:00,
2013-04-01 10:27:00,53.6,46.9,29.70,SSE,155,0.0,1.0,78,0.00,,,0.02,WeatherCatV1.02B3,2013-04-01 14:27:00,
2013-04-01 10:32:00,54.1,46.4,29.70,SSE,155,3.0,6.0,75,0.00,,,0.02,WeatherCatV1.02B3,2013-04-01 14:32:00,
2013-04-01 10:37:00,54.1,47.0,29.70,SSE,155,3.0,7.0,77,0.00,,,0.02,WeatherCatV1.02B3,2013-04-01 14:37:00,
2013-04-01 10:42:00,54.0,46.6,29.70,SSE,155,6.0,8.0,76,0.00,,,0.02,WeatherCatV1.02B3,2013-04-01 14:42:00,
2013-04-01 10:47:00,53.6,46.2,29.70,SSE,155,2.0,8.0,76,0.00,,,0.02,WeatherCatV1.02B3,2013-04-01 14:47:00,
2013-04-01 10:52:00,52.6,45.6,29.70,SSE,155,4.0,12.0,77,0.00,,,0.02,WeatherCatV1.02B3,2013-04-01 14:52:00,
2013-04-01 10:57:00,52.1,45.8,29.70,SSE,155,5.0,8.0,79,0.00,,,0.02,WeatherCatV1.02B3,2013-04-01 14:57:00,
2013-04-01 11:02:00,52.2,45.5,29.70,SSE,157,6.0,13.0,78,0.00,,,0.02,WeatherCatV1.02B3,2013-04-01 15:02:00,
2013-04-01 11:07:00,51.9,45.6,29.70,SSE,155,7.0,16.0,79,0.00,,,0.02,WeatherCatV1.02B3,2013-04-01 15:07:00,
2013-04-01 11:12:00,51.3,45.3,29.70,SSE,156,6.0,12.0,80,0.00,,,0.02,WeatherCatV1.02B3,2013-04-01 15:12:00,
2013-04-01 11:17:00,50.8,44.9,29.70,SSE,157,6.0,11.0,80,0.00,,,0.02,WeatherCatV1.02B3,2013-04-01 15:17:00,
2013-04-01 11:22:00,51.3,45.0,29.69,SSE,157,5.0,9.0,79,0.00,,,0.02,WeatherCatV1.02B3,2013-04-01 15:22:00,
2013-04-01 11:27:00,52.5,46.5,29.70,SSE,156,3.0,3.0,80,0.00,,,0.02,WeatherCatV1.02B3,2013-04-01 15:27:00,
2013-04-01 11:32:00,53.4,46.7,29.69,SSE,156,1.0,7.0,78,0.00,,,0.02,WeatherCatV1.02B3,2013-04-01 15:32:00,
2013-04-01 11:37:00,53.9,45.8,29.69,SSE,157,2.0,8.0,74,0.00,,,0.02,WeatherCatV1.02B3,2013-04-01 15:37:00,
2013-04-01 11:42:00,54.7,46.6,29.69,SSE,156,1.0,6.0,74,0.00,,,0.02,WeatherCatV1.02B3,2013-04-01 15:42:00,
2013-04-01 11:47:00,55.2,46.0,29.69,SSE,157,6.0,11.0,71,0.00,,,0.02,WeatherCatV1.02B3,2013-04-01 15:47:00,
2013-04-01 11:52:00,54.9,45.7,29.69,SSE,155,5.0,8.0,71,0.00,,,0.02,WeatherCatV1.02B3,2013-04-01 15:52:00,
2013-04-01 11:57:00,55.6,46.0,29.69,SSE,155,3.0,8.0,70,0.00,,,0.02,WeatherCatV1.02B3,2013-04-01 15:57:00,
2013-04-01 12:02:00,56.1,45.7,29.68,SSE,155,6.0,12.0,68,0.00,,,0.02,WeatherCatV1.02B3,2013-04-01 16:02:00,
2013-04-01 12:07:00,56.4,45.2,29.68,SSE,155,3.0,5.0,66,0.00,,,0.02,WeatherCatV1.02B3,2013-04-01 16:07:00,
2013-04-01 12:12:00,57.2,46.3,29.68,SSE,155,7.0,7.0,67,0.00,,,0.02,WeatherCatV1.02B3,2013-04-01 16:12:00,
2013-04-01 12:17:00,57.2,45.1,29.68,SSE,157,2.0,9.0,64,0.00,,,0.02,WeatherCatV1.02B3,2013-04-01 16:17:00,
2013-04-01 12:22:00,57.5,45.8,29.67,SSE,155,5.0,13.0,65,0.00,,,0.02,WeatherCatV1.02B3,2013-04-01 16:22:00,
2013-04-01 12:27:00,57.8,45.7,29.67,SSE,155,3.0,7.0,64,0.00,,,0.02,WeatherCatV1.02B3,2013-04-01 16:27:00,
2013-04-01 12:32:00,58.4,45.9,29.67,SSE,155,7.0,10.0,63,0.00,,,0.02,WeatherCatV1.02B3,2013-04-01 16:32:00,
2013-04-01 12:37:00,57.8,44.9,29.67,SSE,156,3.0,18.0,62,0.00,,,0.02,WeatherCatV1.02B3,2013-04-01 16:37:00,
2013-04-01 12:42:00,56.7,44.7,29.67,SSE,156,7.0,15.0,64,0.00,,,0.02,WeatherCatV1.02B3,2013-04-01 16:42:00,
2013-04-01 12:47:00,55.7,45.3,29.67,SSE,157,7.0,14.0,68,0.00,,,0.02,WeatherCatV1.02B3,2013-04-01 16:47:00,
2013-04-01 12:52:00,55.2,46.7,29.67,SSE,155,9.0,10.0,73,0.00,,,0.02,WeatherCatV1.02B3,2013-04-01 16:52:00,
2013-04-01 12:57:00,55.2,47.1,29.66,SSE,155,5.0,9.0,74,0.00,,,0.02,WeatherCatV1.02B3,2013-04-01 16:57:00,
2013-04-01 13:02:00,55.5,47.0,29.66,SSE,155,6.0,9.0,73,0.00,,,0.02,WeatherCatV1.02B3,2013-04-01 17:02:00,
2013-04-01 13:07:00,55.6,46.7,29.66,SSE,155,9.0,13.0,72,0.00,,,0.02,WeatherCatV1.02B3,2013-04-01 17:07:00,
2013-04-01 13:12:00,56.1,47.2,29.66,SSE,155,4.0,6.0,72,0.00,,,0.02,WeatherCatV1.02B3,2013-04-01 17:12:00,
2013-04-01 13:17:00,56.3,47.0,29.66,SSE,155,9.0,16.0,71,0.00,,,0.02,WeatherCatV1.02B3,2013-04-01 17:17:00,
2013-04-01 13:22:00,56.3,47.0,29.66,SSE,155,12.0,14.0,71,0.00,,,0.02,WeatherCatV1.02B3,2013-04-01 17:22:00,
2013-04-01 13:27:00,56.0,46.7,29.66,SSE,153,4.0,12.0,71,0.00,,,0.02,WeatherCatV1.02B3,2013-04-01 17:27:00,
2013-04-01 13:32:00,56.3,46.6,29.66,SSE,155,6.0,11.0,70,0.00,,,0.02,WeatherCatV1.02B3,2013-04-01 17:32:00,
2013-04-01 13:37:00,56.5,46.8,29.66,SSE,155,7.0,12.0,70,0.00,,,0.02,WeatherCatV1.02B3,2013-04-01 17:37:00,
2013-04-01 13:42:00,56.4,47.1,29.66,SSE,155,7.0,10.0,71,0.00,,,0.02,WeatherCatV1.02B3,2013-04-01 17:42:00,
2013-04-01 13:47:00,56.8,47.1,29.66,SSE,155,2.0,10.0,70,0.00,,,0.02,WeatherCatV1.02B3,2013-04-01 17:47:00,
2013-04-01 13:52:00,56.9,46.8,29.65,SSE,155,6.0,10.0,69,0.00,,,0.02,WeatherCatV1.02B3,2013-04-01 17:52:00,
2013-04-01 13:57:00,57.2,47.1,29.65,SSE,155,3.0,11.0,69,0.00,,,0.02,WeatherCatV1.02B3,2013-04-01 17:57:00,
2013-04-01 14:02:00,57.1,46.6,29.64,SSE,155,2.0,11.0,68,0.00,,,0.02,WeatherCatV1.02B3,2013-04-01 18:02:00,
2013-04-01 14:07:00,57.0,46.2,29.65,SSE,157,2.0,10.0,67,0.00,,,0.02,WeatherCatV1.02B3,2013-04-01 18:07:00,
2013-04-01 14:12:00,57.2,46.3,29.65,SSE,157,3.0,7.0,67,0.00,,,0.02,WeatherCatV1.02B3,2013-04-01 18:12:00,
2013-04-01 14:17:00,57.5,46.2,29.64,SSE,155,4.0,7.0,66,0.00,,,0.02,WeatherCatV1.02B3,2013-04-01 18:17:00,
2013-04-01 14:22:00,57.5,46.6,29.64,SSE,155,11.0,12.0,67,0.00,,,0.02,WeatherCatV1.02B3,2013-04-01 18:22:00,
2013-04-01 14:27:00,56.8,45.6,29.64,SSE,155,8.0,11.0,66,0.00,,,0.02,WeatherCatV1.02B3,2013-04-01 18:27:00,
2013-04-01 14:32:00,56.4,46.0,29.64,SSE,156,6.0,11.0,68,0.00,,,0.02,WeatherCatV1.02B3,2013-04-01 18:32:00,
2013-04-01 14:37:00,56.2,45.4,29.63,SSE,155,5.0,13.0,67,0.00,,,0.02,WeatherCatV1.02B3,2013-04-01 18:37:00,
2013-04-01 14:42:00,56.3,45.9,29.63,SSE,155,14.0,16.0,68,0.00,,,0.02,WeatherCatV1.02B3,2013-04-01 18:42:00,
2013-04-01 14:47:00,56.3,45.5,29.63,SSE,157,5.0,16.0,67,0.00,,,0.02,WeatherCatV1.02B3,2013-04-01 18:47:00,
2013-04-01 14:52:00,56.1,45.3,29.63,SSE,155,6.0,8.0,67,0.00,,,0.02,WeatherCatV1.02B3,2013-04-01 18:52:00,
2013-04-01 14:57:00,56.5,46.1,29.63,SSE,155,6.0,15.0,68,0.00,,,0.02,WeatherCatV1.02B3,2013-04-01 18:57:00,
2013-04-01 15:02:00,56.8,46.4,29.62,SSE,155,7.0,8.0,68,0.00,,,0.02,WeatherCatV1.02B3,2013-04-01 19:02:00,
2013-04-01 15:07:00,57.0,45.3,29.62,SSE,155,6.0,24.0,65,0.00,,,0.02,WeatherCatV1.02B3,2013-04-01 19:07:00,
2013-04-01 15:12:00,56.9,45.7,29.61,SSE,153,5.0,11.0,66,0.00,,,0.02,WeatherCatV1.02B3,2013-04-01 19:12:00,
2013-04-01 15:17:00,57.2,45.5,29.62,SSE,156,13.0,16.0,65,0.00,,,0.02,WeatherCatV1.02B3,2013-04-01 19:17:00,
2013-04-01 15:22:00,57.3,46.0,29.62,SSE,153,5.0,9.0,66,0.00,,,0.02,WeatherCatV1.02B3,2013-04-01 19:22:00,
2013-04-01 15:27:00,57.1,45.0,29.62,SSE,155,4.0,13.0,64,0.00,,,0.02,WeatherCatV1.02B3,2013-04-01 19:27:00,
2013-04-01 15:32:00,56.3,45.1,29.63,SSE,155,8.0,11.0,66,0.00,,,0.02,WeatherCatV1.02B3,2013-04-01 19:32:00,
2013-04-01 15:37:00,55.3,44.9,29.64,SSE,155,3.0,13.0,68,0.00,,,0.02,WeatherCatV1.02B3,2013-04-01 19:37:00,
2013-04-01 15:42:00,54.2,45.7,29.65,SSE,158,7.0,15.0,73,0.00,,,0.02,WeatherCatV1.02B3,2013-04-01 19:42:00,
2013-04-01 15:47:00,52.6,46.9,29.66,SSE,158,1.0,5.0,81,0.00,,,0.03,WeatherCatV1.02B3,2013-04-01 19:47:00,
2013-04-01 15:52:00,51.4,46.4,29.65,SSE,158,3.0,5.0,83,0.00,,,0.03,WeatherCatV1.02B3,2013-04-01 19:52:00,
2013-04-01 15:57:00,51.2,47.5,29.64,SSE,158,1.0,3.0,87,0.00,,,0.03,WeatherCatV1.02B3,2013-04-01 19:57:00,
2013-04-01 16:02:00,51.5,47.5,29.64,SSE,158,0.0,2.0,86,0.00,,,0.03,WeatherCatV1.02B3,2013-04-01 20:02:00,
2013-04-01 16:07:00,51.8,47.7,29.64,SSE,158,0.0,1.0,86,0.00,,,0.03,WeatherCatV1.02B3,2013-04-01 20:07:00,
2013-04-01 16:12:00,52.5,48.7,29.64,SSE,158,0.0,2.0,87,0.00,,,0.03,WeatherCatV1.02B3,2013-04-01 20:12:00,
2013-04-01 16:17:00,52.7,48.3,29.64,SSE,158,1.0,3.0,85,0.00,,,0.03,WeatherCatV1.02B3,2013-04-01 20:17:00,
2013-04-01 16:22:00,52.8,47.8,29.64,SSE,158,1.0,4.0,83,0.00,,,0.03,WeatherCatV1.02B3,2013-04-01 20:22:00,
2013-04-01 16:27:00,52.9,47.2,29.64,SSE,158,1.0,5.0,81,0.00,,,0.03,WeatherCatV1.02B3,2013-04-01 20:27:00,
2013-04-01 16:32:00,52.9,47.2,29.65,SSE,158,3.0,4.0,81,0.00,,,0.03,WeatherCatV1.02B3,2013-04-01 20:32:00,
2013-04-01 16:37:00,52.8,47.1,29.65,SSE,158,0.0,3.0,81,0.00,,,0.03,WeatherCatV1.02B3,2013-04-01 20:37:00,
2013-04-01 16:42:00,52.7,46.4,29.65,SSE,158,1.0,4.0,79,0.00,,,0.03,WeatherCatV1.02B3,2013-04-01 20:42:00,
2013-04-01 16:47:00,52.7,46.0,29.66,SSE,158,2.0,4.0,78,0.00,,,0.03,WeatherCatV1.02B3,2013-04-01 20:47:00,
2013-04-01 16:52:00,52.6,44.9,29.66,SSE,158,1.0,8.0,75,0.00,,,0.04,WeatherCatV1.02B3,2013-04-01 20:52:00,
2013-04-01 16:57:00,52.4,43.3,29.66,SSE,158,3.0,5.0,71,0.00,,,0.04,WeatherCatV1.02B3,2013-04-01 20:57:00,
2013-04-01 17:02:00,52.1,43.4,29.67,SSE,158,3.0,7.0,72,0.00,,,0.04,WeatherCatV1.02B3,2013-04-01 21:02:00,
2013-04-01 17:07:00,51.2,43.9,29.67,SSE,158,4.0,7.0,76,0.00,,,0.04,WeatherCatV1.02B3,2013-04-01 21:07:00,
2013-04-01 17:12:00,50.3,43.4,29.67,SSE,156,2.0,4.0,77,0.00,,,0.04,WeatherCatV1.02B3,2013-04-01 21:12:00,
2013-04-01 17:17:00,49.6,42.3,29.67,SSE,156,0.0,7.0,76,0.00,,,0.04,WeatherCatV1.02B3,2013-04-01 21:17:00,
2013-04-01 17:22:00,49.1,41.5,29.68,SSE,156,2.0,10.0,75,0.00,,,0.04,WeatherCatV1.02B3,2013-04-01 21:22:00,
2013-04-01 17:27:00,48.1,41.2,29.69,SSE,156,9.0,12.0,77,0.00,,,0.04,WeatherCatV1.02B3,2013-04-01 21:27:00,
2013-04-01 17:32:00,46.5,39.0,29.70,SSE,156,1.0,8.0,75,0.00,,,0.04,WeatherCatV1.02B3,2013-04-01 21:32:00,
2013-04-01 17:37:00,45.6,38.8,29.71,SSE,156,2.0,4.0,77,0.00,,,0.04,WeatherCatV1.02B3,2013-04-01 21:37:00,
2013-04-01 17:42:00,44.7,38.3,29.71,SSE,155,0.0,2.0,78,0.00,,,0.04,WeatherCatV1.02B3,2013-04-01 21:42:00,
2013-04-01 17:47:00,44.1,37.0,29.72,SSE,155,0.0,10.0,76,0.00,,,0.04,WeatherCatV1.02B3,2013-04-01 21:47:00,
2013-04-01 17:52:00,43.8,37.4,29.72,SSE,155,0.0,4.0,78,0.00,,,0.04,WeatherCatV1.02B3,2013-04-01 21:52:00,
2013-04-01 17:57:00,43.6,37.2,29.72,SSE,155,2.0,4.0,78,0.00,,,0.04,WeatherCatV1.02B3,2013-04-01 21:57:00,
2013-04-01 18:02:00,43.3,36.9,29.72,SSE,155,3.0,7.0,78,0.00,,,0.04,WeatherCatV1.02B3,2013-04-01 22:02:00,
2013-04-01 18:07:00,43.0,36.6,29.72,SSE,155,3.0,5.0,78,0.00,,,0.04,WeatherCatV1.02B3,2013-04-01 22:07:00,
2013-04-01 18:12:00,42.8,36.4,29.72,SSE,155,4.0,8.0,78,0.00,,,0.04,WeatherCatV1.02B3,2013-04-01 22:12:00,
2013-04-01 18:17:00,42.5,35.8,29.73,SSE,155,1.0,9.0,77,0.00,,,0.04,WeatherCatV1.02B3,2013-04-01 22:17:00,
2013-04-01 18:22:00,42.4,36.4,29.74,SSE,155,1.0,3.0,79,0.00,,,0.04,WeatherCatV1.02B3,2013-04-01 22:22:00,
2013-04-01 18:27:00,42.2,35.5,29.73,SSE,155,0.0,6.0,77,0.00,,,0.04,WeatherCatV1.02B3,2013-04-01 22:27:00,
2013-04-01 18:32:00,42.1,35.7,29.73,SSE,155,0.0,2.0,78,0.00,,,0.04,WeatherCatV1.02B3,2013-04-01 22:32:00,
2013-04-01 18:37:00,42.0,35.6,29.73,SSE,155,4.0,5.0,78,0.00,,,0.04,WeatherCatV1.02B3,2013-04-01 22:37:00,
2013-04-01 18:42:00,42.0,35.3,29.74,SSE,155,2.0,5.0,77,0.00,,,0.04,WeatherCatV1.02B3,2013-04-01 22:42:00,
2013-04-01 18:47:00,41.8,34.8,29.75,SSE,155,6.0,8.0,76,0.00,,,0.04,WeatherCatV1.02B3,2013-04-01 22:47:00,
2013-04-01 18:52:00,41.7,34.7,29.75,SSE,155,3.0,8.0,76,0.00,,,0.04,WeatherCatV1.02B3,2013-04-01 22:52:00,
2013-04-01 18:57:00,41.5,34.5,29.75,SSE,155,0.0,2.0,76,0.00,,,0.04,WeatherCatV1.02B3,2013-04-01 22:57:00,
2013-04-01 19:02:00,41.3,34.0,29.75,SSE,155,4.0,5.0,75,0.00,,,0.04,WeatherCatV1.02B3,2013-04-01 23:02:00,
2013-04-01 19:07:00,41.1,33.8,29.75,SSE,155,3.0,5.0,75,0.00,,,0.04,WeatherCatV1.02B3,2013-04-01 23:07:00,
2013-04-01 19:12:00,41.0,33.7,29.75,SSE,155,1.0,5.0,75,0.00,,,0.04,WeatherCatV1.02B3,2013-04-01 23:12:00,
2013-04-01 19:17:00,40.8,33.5,29.76,SSE,155,4.0,6.0,75,0.00,,,0.04,WeatherCatV1.02B3,2013-04-01 23:17:00,
2013-04-01 19:22:00,40.7,33.4,29.76,SSE,155,0.0,3.0,75,0.00,,,0.04,WeatherCatV1.02B3,2013-04-01 23:22:00,
2013-04-01 19:27:00,40.5,33.2,29.76,SSE,155,1.0,2.0,75,0.00,,,0.04,WeatherCatV1.02B3,2013-04-01 23:27:00,
2013-04-01 19:32:00,40.5,33.2,29.77,SSE,155,0.0,5.0,75,0.00,,,0.04,WeatherCatV1.02B3,2013-04-01 23:32:00,
2013-04-01 19:37:00,40.5,32.9,29.77,SSE,155,3.0,4.0,74,0.00,,,0.04,WeatherCatV1.02B3,2013-04-01 23:37:00,
2013-04-01 19:42:00,40.5,32.9,29.77,SSE,155,1.0,2.0,74,0.00,,,0.04,WeatherCatV1.02B3,2013-04-01 23:42:00,
2013-04-01 19:47:00,40.3,32.7,29.78,SSE,155,1.0,5.0,74,0.00,,,0.04,WeatherCatV1.02B3,2013-04-01 23:47:00,
2013-04-01 19:52:00,40.1,32.8,29.78,SSE,155,0.0,1.0,75,0.00,,,0.04,WeatherCatV1.02B3,2013-04-01 23:52:00,
2013-04-01 19:57:00,40.0,32.4,29.78,SSE,155,0.0,1.0,74,0.00,,,0.04,WeatherCatV1.02B3,2013-04-01 23:57:00,
2013-04-01 20:02:00,39.9,32.0,29.79,SSE,155,1.0,4.0,73,0.00,,,0.04,WeatherCatV1.02B3,2013-04-02 00:02:00,
2013-04-01 20:07:00,39.8,32.2,29.79,SSE,155,0.0,2.0,74,0.00,,,0.04,WeatherCatV1.02B3,2013-04-02 00:07:00,
2013-04-01 20:12:00,39.6,31.7,29.79,SSE,155,0.0,6.0,73,0.00,,,0.04,WeatherCatV1.02B3,2013-04-02 00:12:00,
2013-04-01 20:17:00,39.4,31.5,29.79,SSE,155,0.0,3.0,73,0.00,,,0.04,WeatherCatV1.02B3,2013-04-02 00:17:00,
2013-04-01 20:22:00,39.2,31.6,29.79,SSE,155,1.0,2.0,74,0.00,,,0.04,WeatherCatV1.02B3,2013-04-02 00:22:00,
2013-04-01 20:27:00,39.1,30.8,29.79,SSE,155,0.0,3.0,72,0.00,,,0.04,WeatherCatV1.02B3,2013-04-02 00:27:00,
2013-04-01 20:32:00,39.1,31.2,29.79,SSE,155,0.0,2.0,73,0.00,,,0.04,WeatherCatV1.02B3,2013-04-02 00:32:00,
2013-04-01 20:37:00,38.9,30.3,29.79,SSE,155,1.0,2.0,71,0.00,,,0.04,WeatherCatV1.02B3,2013-04-02 00:37:00,
2013-04-01 20:42:00,38.8,30.2,29.79,SSE,155,2.0,5.0,71,0.00,,,0.04,WeatherCatV1.02B3,2013-04-02 00:42:00,
2013-04-01 20:47:00,38.8,30.2,29.80,SSE,155,0.0,4.0,71,0.00,,,0.04,WeatherCatV1.02B3,2013-04-02 00:47:00,
2013-04-01 20:52:00,38.7,30.1,29.80,SSE,155,3.0,4.0,71,0.00,,,0.04,WeatherCatV1.02B3,2013-04-02 00:52:00,
2013-04-01 20:57:00,38.6,30.0,29.80,SSE,155,1.0,3.0,71,0.00,,,0.04,WeatherCatV1.02B3,2013-04-02 00:57:00,
2013-04-01 21:02:00,38.4,29.5,29.81,SSE,155,4.0,4.0,70,0.00,,,0.04,WeatherCatV1.02B3,2013-04-02 01:02:00,
2013-04-01 21:07:00,38.5,29.6,29.81,SSE,155,0.0,3.0,70,0.00,,,0.04,WeatherCatV1.02B3,2013-04-02 01:07:00,
2013-04-01 21:12:00,38.3,29.4,29.82,SSE,155,0.0,5.0,70,0.00,,,0.04,WeatherCatV1.02B3,2013-04-02 01:12:00,
2013-04-01 21:17:00,38.2,29.3,29.82,SSE,155,2.0,3.0,70,0.00,,,0.04,WeatherCatV1.02B3,2013-04-02 01:17:00,
2013-04-01 21:22:00,38.3,28.7,29.82,SSE,155,2.0,4.0,68,0.00,,,0.04,WeatherCatV1.02B3,2013-04-02 01:22:00,
2013-04-01 21:27:00,38.3,28.3,29.83,SSE,155,1.0,4.0,67,0.00,,,0.04,WeatherCatV1.02B3,2013-04-02 01:27:00,
2013-04-01 21:32:00,38.1,27.8,29.83,SSE,155,0.0,0.0,66,0.00,,,0.04,WeatherCatV1.02B3,2013-04-02 01:32:00,
2013-04-01 21:37:00,37.8,27.8,29.83,SSE,155,4.0,5.0,67,0.00,,,0.04,WeatherCatV1.02B3,2013-04-02 01:37:00,
2013-04-01 21:42:00,37.8,26.7,29.83,SSE,155,2.0,5.0,64,0.00,,,0.04,WeatherCatV1.02B3,2013-04-02 01:42:00,
2013-04-01 21:47:00,37.6,26.2,29.84,SSE,155,0.0,3.0,63,0.00,,,0.04,WeatherCatV1.02B3,2013-04-02 01:47:00,
2013-04-01 21:52:00,37.5,25.7,29.84,SSE,155,6.0,6.0,62,0.00,,,0.04,WeatherCatV1.02B3,2013-04-02 01:52:00,
2013-04-01 21:57:00,37.6,25.0,29.84,SSE,155,0.0,10.0,60,0.00,,,0.04,WeatherCatV1.02B3,2013-04-02 01:57:00,
2013-04-01 22:02:00,37.4,24.4,29.84,SSE,155,1.0,3.0,59,0.00,,,0.04,WeatherCatV1.02B3,2013-04-02 02:02:00,
2013-04-01 22:07:00,37.2,24.2,29.84,SSE,155,2.0,4.0,59,0.00,,,0.04,WeatherCatV1.02B3,2013-04-02 02:07:00,
2013-04-01 22:12:00,37.2,22.5,29.85,SSE,155,2.0,5.0,55,0.00,,,0.04,WeatherCatV1.02B3,2013-04-02 02:12:00,
2013-04-01 22:17:00,37.2,22.1,29.85,SSE,155,1.0,9.0,54,0.00,,,0.04,WeatherCatV1.02B3,2013-04-02 02:17:00,
2013-04-01 22:22:00,37.1,21.6,29.85,SSE,155,0.0,7.0,53,0.00,,,0.04,WeatherCatV1.02B3,2013-04-02 02:22:00,
2013-04-01 22:27:00,36.9,20.9,29.85,SSE,155,5.0,6.0,52,0.00,,,0.04,WeatherCatV1.02B3,2013-04-02 02:27:00,
2013-04-01 22:32:00,36.8,20.8,29.86,SSE,155,2.0,4.0,52,0.00,,,0.04,WeatherCatV1.02B3,2013-04-02 02:32:00,
2013-04-01 22:37:00,36.7,19.8,29.85,SSE,155,7.0,8.0,50,0.00,,,0.04,WeatherCatV1.02B3,2013-04-02 02:37:00,
2013-04-01 22:42:00,36.7,18.9,29.86,SSE,155,2.0,9.0,48,0.00,,,0.04,WeatherCatV1.02B3,2013-04-02 02:42:00,
2013-04-01 22:47:00,36.7,19.4,29.86,SSE,155,1.0,1.0,49,0.00,,,0.04,WeatherCatV1.02B3,2013-04-02 02:47:00,
2013-04-01 22:52:00,36.4,18.6,29.86,SSE,155,0.0,4.0,48,0.00,,,0.04,WeatherCatV1.02B3,2013-04-02 02:52:00,
2013-04-01 22:57:00,36.4,18.1,29.86,SSE,155,0.0,3.0,47,0.00,,,0.04,WeatherCatV1.02B3,2013-04-02 02:57:00,
2013-04-01 23:02:00,36.2,18.4,29.86,SSE,155,0.0,4.0,48,0.00,,,0.04,WeatherCatV1.02B3,2013-04-02 03:02:00,
2013-04-01 23:07:00,36.0,18.2,29.86,SSE,155,1.0,3.0,48,0.00,,,0.04,WeatherCatV1.02B3,2013-04-02 03:07:00,
2013-04-01 23:12:00,35.8,18.5,29.87,SSE,155,3.0,8.0,49,0.00,,,0.04,WeatherCatV1.02B3,2013-04-02 03:12:00,
2013-04-01 23:17:00,35.6,18.3,29.87,SSE,155,4.0,6.0,49,0.00,,,0.04,WeatherCatV1.02B3,2013-04-02 03:17:00,
2013-04-01 23:22:00,35.5,17.8,29.87,SSE,155,4.0,8.0,48,0.00,,,0.04,WeatherCatV1.02B3,2013-04-02 03:22:00,
2013-04-01 23:27:00,35.4,17.7,29.87,SSE,155,1.0,6.0,48,0.00,,,0.04,WeatherCatV1.02B3,2013-04-02 03:27:00,
2013-04-01 23:32:00,35.2,18.0,29.87,SSE,155,3.0,5.0,49,0.00,,,0.04,WeatherCatV1.02B3,2013-04-02 03:32:00,
2013-04-01 23:37:00,34.9,17.7,29.87,SSE,155,2.0,2.0,49,0.00,,,0.04,WeatherCatV1.02B3,2013-04-02 03:37:00,
2013-04-01 23:42:00,34.7,18.4,29.88,SSE,155,0.0,1.0,51,0.00,,,0.04,WeatherCatV1.02B3,2013-04-02 03:42:00,
2013-04-01 23:47:00,34.7,18.0,29.88,SSE,155,1.0,4.0,50,0.00,,,0.04,WeatherCatV1.02B3,2013-04-02 03:47:00,
2013-04-01 23:52:00,34.6,17.4,29.88,SSE,155,0.0,3.0,49,0.00,,,0.04,WeatherCatV1.02B3,2013-04-02 03:52:00,
2013-04-01 23:57:00,34.5,17.3,29.88,SSE,155,0.0,2.0,49,0.00,,,0.04,WeatherCatV1.02B3,2013-04-02 03:57:00,